Back to catalog

STARLINK-37586

AliveCommunicationsVLEO
NORAD 69521·PAYLOAD·🇺🇸 United States

Launched Jun 12, 2026 from Cape Canaveral Space Force Station

Loading…

Next Passes (next 24 hours)

TLE

FreshSource: CelesTrak SupGP

Epoch: Sep 14, 2026, 23:13 UTC

1 69521C 26133P   26257.96784722  .00035171  00000+0  10391-2 0  2574
2 69521  53.1563 255.4573 0001201  92.1300 359.4427 15.34374517    13

Track STARLINK-37586 in real time with AllMySat

Download on the App Store